Weather History for Norfolk, NE

Change the Weather History Date:

Monday, October 15, 2012

  Actual Average Record
Temperature  
Mean Temperature 56 °F 52 °F  
Max Temperature 78 °F 64 °F 90 °F (1958)
Min Temperature 34 °F 39 °F 21 °F (1943)
Degree Days  
Heating Degree Days 9 14  
Month to date heating degree days 236 170  
Since 1 July heating degree days 355 312  
Cooling Degree Days 0 0  
Month to date cooling degree days 0 8  
Year to date cooling degree days 1373 914  
Growing Degree Days 6 (Base 50)    
Moisture  
Dew Point 37 °F    
Average Humidity 57    
Maximum Humidity 92    
Minimum Humidity 22    
Precipitation  
Precipitation 0.00 in 0.07 in 2.60 in (2007)
Month to date precipitation 0.23 1.15  
Year to date precipitation 12.68 24.37  
Snow  
Snow 0.00 in 0.10 in - ()
Month to date snowfall 0.0 0.2  
Since 1 July snowfall 0.0 0.2  
Snow Depth 0.00 in    
Sea Level Pressure  
Sea Level Pressure 29.86 in    
Wind  
Wind Speed 7 mph (SSE)    
Max Wind Speed 20 mph    
Max Gust Speed 25 mph    
Visibility 10 miles    
Events      
T = Trace of Precipitation, MM = Missing Value Source: NWS Daily Summary

Daily Weather History Graph

Daily Weather History Graph

Search for Another Location

Airport:

Trip Planner

Search our weather history database for the weather conditions in past years. The results will help you decide how hot, cold, wet, or windy it might be!

Date:

Astronomy

Oct. 15, 2012 Rise Set
Actual Time 7:42 AM CDT 6:47 PM CDT
Civil Twilight 7:14 AM CDT 7:15 PM CDT
Nautical Twilight 6:42 AM CDT 7:47 PM CDT
Astronomical Twilight 6:09 AM CDT 8:20 PM CDT
Moon 7:55 AM CDT (10/15) 6:46 PM CDT (10/15)
Length of Visible Light 12h 00m
Length of Day
11h 04m
New Moon, 0% of the Moon is Illuminated
Oct 15
New Moon
Oct 21
First Quarter
Oct 29
Full
Nov 6
Last Quarter
Nov 13
New

Hourly Weather History & Observations

Time (CDT) Temp. Dew Point Humidity Pressure Visibility Wind Dir Wind Speed Gust Speed Precip Events Conditions
12:56 AM 42.1 °F 35.1 °F 76% 29.98 in 10.0 mi Calm Calm - N/A   Clear
1:56 AM 42.1 °F 35.1 °F 76% 29.97 in 10.0 mi Calm Calm - N/A   Clear
2:56 AM 39.0 °F 34.0 °F 82% 29.96 in 10.0 mi Calm Calm - N/A   Clear
3:56 AM 37.0 °F 33.1 °F 86% 29.95 in 10.0 mi Calm Calm - N/A   Clear
5:56 AM 36.0 °F 32.0 °F 86% 29.96 in 10.0 mi Calm Calm - N/A   Clear
7:56 AM 35.1 °F 32.0 °F 89% 29.96 in 10.0 mi Calm Calm - N/A   Clear
8:56 AM 39.9 °F 36.0 °F 86% 29.98 in 10.0 mi Calm Calm - N/A   Clear
9:56 AM 51.1 °F 39.9 °F 66% 29.97 in 10.0 mi Calm Calm - N/A   Clear
10:56 AM 59.0 °F 39.9 °F 49% 29.94 in 10.0 mi Variable 3.5 mph - N/A   Clear
11:56 AM 66.0 °F 39.0 °F 37% 29.91 in 10.0 mi SE 5.8 mph - N/A   Clear
1:56 PM 73.9 °F 36.0 °F 25% 29.84 in 10.0 mi South 11.5 mph - N/A   Clear
2:56 PM 75.9 °F 36.0 °F 23% 29.81 in 10.0 mi South 13.8 mph - N/A   Clear
3:56 PM 77.0 °F 35.1 °F 22% 29.79 in 10.0 mi South 11.5 mph 20.7 mph N/A   Clear
4:56 PM 75.0 °F 37.0 °F 25% 29.78 in 10.0 mi South 11.5 mph - N/A   Clear
6:56 PM 70.0 °F 39.9 °F 33% 29.75 in 10.0 mi SSE 10.4 mph - N/A   Clear
7:56 PM 68.0 °F 41.0 °F 37% 29.75 in 10.0 mi SE 9.2 mph - N/A   Clear
8:56 PM 66.9 °F 41.0 °F 39% 29.73 in 10.0 mi SE 12.7 mph - N/A   Clear
9:56 PM 64.0 °F 41.0 °F 43% 29.70 in 10.0 mi SSE 15.0 mph - N/A   Clear
10:56 PM 64.0 °F 43.0 °F 46% 29.69 in 10.0 mi South 18.4 mph - N/A   Clear
11:56 PM 64.0 °F 44.1 °F 48% 29.66 in 10.0 mi South 16.1 mph 24.2 mph N/A   Clear